Location: Unspecified
(0.0000°N, 0.0000°E)
Time: 03:52:47
(UTC+00:00)

OTV 5 (USA 277) - Pass Details

Date: 10 February 2018
Orbit: 404 x 417 km, 43.0° (Epoch: 07 September)

Event Time Altitude Azimuth Distance (km) Brightness Sun altitude
Rises 19:11:52 0° 308° (NW) 2,339 ? -14.0°
Reaches altitude 10° 19:14:00 10° 304° (WNW) 1,479 ? -14.5°
Maximum altitude 19:17:17 53° 226° (SW) 514 ? -15.3°
Drops below altitude 10° 19:20:33 10° 148° (SSE) 1,480 ? -16.1°
Enters shadow 19:20:57 - 146° (SSE) 1,635 ? -16.2°
